This is the latest recevied weather packets stored in our database for station/object HB9EYZ-1. If no packets are shown the sender has not sent any weather packets the latest 1 day(s).
| Time | Temp. | Humidity | Pressure | Rain* | Wind** | Luminosity | Snow |
|---|---|---|---|---|---|---|---|
| 1778085134 | 11.67° C | 48% | 1005.1 hPa | 5.84 mm | - | - | - |
| 1778084501 | 11.67° C | 48% | 1005 hPa | 5.84 mm | - | - | - |
| 1778083865 | 11.67° C | 48% | 1005 hPa | 5.84 mm | - | - | - |
| 1778081329 | 11.11° C | 44% | 1005 hPa | 5.84 mm | - | - | - |
| 1778081012 | 11.11° C | 43% | 1005 hPa | 5.84 mm | - | - | - |
| 1778079429 | 11.11° C | 47% | 1004.9 hPa | 5.84 mm | - | - | - |
| 1778078476 | 11.11° C | 49% | 1004.9 hPa | 5.84 mm | - | - | - |
| 1778076256 | 11.11° C | 49% | 1005.2 hPa | 5.84 mm | - | - | - |
| 1778074671 | 10.56° C | 51% | 1005.1 hPa | 5.84 mm | - | - | - |
| 1778074354 | 10.56° C | 51% | 1005.2 hPa | 5.84 mm | - | - | - |
| 1778074035 | 10.56° C | 51% | 1004.9 hPa | 5.84 mm | - | - | - |
| 1778073401 | 10.56° C | 52% | 1004.9 hPa | 5.84 mm | - | - | - |
| 1778072768 | 11.11° C | 53% | 1005 hPa | 5.59 mm | - | - | - |
| 1778071184 | 11.11° C | 51% | 1004.7 hPa | 4.57 mm | - | - | - |
| 1778070867 | 11.11° C | 51% | 1004.8 hPa | 4.57 mm | - | - | - |
| 1778069600 | 11.67° C | 50% | 1004.6 hPa | 4.06 mm | - | - | - |
| 1778069283 | 12.22° C | 49% | 1004.4 hPa | 4.06 mm | - | - | - |
| 1778068016 | 12.78° C | 50% | 1004.1 hPa | 3.56 mm | - | - | - |
| 1778067699 | 12.78° C | 52% | 1003.6 hPa | 3.05 mm | - | - | - |
| 1778067382 | 12.78° C | 51% | 1004 hPa | 3.05 mm | - | - | - |
| 1778067065 | 12.78° C | 51% | 1003.6 hPa | 2.79 mm | - | - | - |
| 1778064862 | 12.22° C | 50% | 1003.8 hPa | 2.29 mm | - | - | - |
| 1778064545 | 12.22° C | 48% | 1003.7 hPa | 2.29 mm | - | - | - |
| 1778063593 | 12.78° C | 48% | 1003.5 hPa | 1.78 mm | - | - | - |
| 1778063276 | 12.78° C | 47% | 1003.6 hPa | 1.27 mm | - | - | - |
* Rain latest hour (hover to see other rain measurements)
** Current wind speed in m/s (hover to see current wind gust speed)